This is the latest recevied weather packets stored in our database for station/object CQ0XBF-11. If no packets are shown the sender has not sent any weather packets the latest 1 day(s).
| Time | Temp. | Humidity | Pressure | Rain* | Wind** | Luminosity | Snow |
|---|---|---|---|---|---|---|---|
| 1778083871 | 22.78° C | 36% | - | 0 mm | - | - | - |
| 1778083749 | 22.78° C | 39% | - | 0 mm | - | - | - |
| 1778083628 | 22.22° C | 38% | - | 0 mm | - | - | - |
| 1778083506 | 21.67° C | 39% | - | 0 mm | - | - | - |
| 1778083263 | 21.11° C | 41% | - | 0 mm | - | - | - |
| 1778083020 | 21.67° C | 39% | - | 0 mm | - | - | - |
| 1778082777 | 23.89° C | 36% | - | 0 mm | - | - | - |
| 1778082534 | 23.89° C | 36% | - | 0 mm | - | - | - |
| 1778082449 | 23.33° C | 35% | - | 0 mm | - | - | - |
| 1778082291 | 23.89° C | 34% | - | 0 mm | - | - | - |
| 1778081805 | 23.89° C | 33% | - | 0 mm | - | - | - |
| 1778081561 | 23.33° C | 33% | - | 0 mm | - | - | - |
| 1778080224 | 24.44° C | 33% | - | 0 mm | - | - | - |
| 1778079738 | 24.44° C | 33% | - | 0 mm | - | - | - |
| 1778079495 | 25° C | 31% | - | 0 mm | - | - | - |
| 1778078766 | 23.33° C | 35% | - | 0 mm | - | - | - |
| 1778078555 | 23.33° C | 32% | - | 0 mm | - | - | - |
| 1778078523 | 23.33° C | 32% | - | 0 mm | - | - | - |
| 1778078159 | 23.33° C | 35% | - | 0 mm | - | - | - |
| 1778078037 | 23.33° C | 34% | - | 0 mm | - | - | - |
| 1778077915 | 22.78° C | 35% | - | 0 mm | - | - | - |
| 1778077551 | 23.33° C | 34% | - | 0 mm | - | - | - |
| 1778077429 | 22.78° C | 35% | - | 0 mm | - | - | - |
| 1778077225 | 22.78° C | 33% | - | 0 mm | - | - | - |
| 1778077186 | 22.78° C | 33% | - | 0 mm | - | - | - |
* Rain since midnight (hover to see other rain measurements)
** Current wind speed in m/s (hover to see current wind gust speed)